FWS9458 Weather Reports


time (UTC)temp
C
wind
direction
speed
KPH
gust
KPH
rain 1hr
cm
rain 24hr
cm
rain mn
cm
humidity
%
barometer
mb
20260507131204 18 214 4.8 17.7 0.00 0.00 0.00 49 1010.3
20260507130904 17 221 4.8 17.7 0.00 0.00 0.00 50 1010.7
20260507130604 18 229 6.4 17.7 0.00 0.00 0.00 48 1010.7
20260507130304 17 226 6.4 22.5 0.00 0.00 0.00 49 1010.7
20260507130005 18 217 9.7 22.5 0.00 0.00 0.00 49 1010.6
20260507125704 18 220 8.0 22.5 0.00 0.00 0.00 48 1010.7
20260507125404 17 217 8.0 22.5 0.00 0.00 0.00 50 1010.8
20260507125104 17 224 9.7 22.5 0.00 0.00 0.00 48 1010.8
20260507124804 18 230 9.7 22.5 0.00 0.00 0.00 46 1010.8
20260507124505 18 235 12.9 24.1 0.00 0.00 0.00 44 1010.8
20260507124204 18 232 14.5 24.1 0.00 0.00 0.00 45 1010.6
20260507123904 19 237 12.9 24.1 0.00 0.00 0.00 45 1010.7
20260507123604 19 225 14.5 43.5 0.00 0.00 0.00 45 1010.7
20260507123304 18 200 16.1 43.5 0.00 0.00 0.00 45 1010.8
20260507123005 20 172 12.9 43.5 0.00 0.00 0.00 43 1010.7
20260507122705 20 167 17.7 43.5 0.00 0.00 0.00 40 1010.8
20260507122104 19 182 17.7 32.2 0.00 0.00 0.00 43 1010.9
20260507121804 21 197 9.7 24.1 0.00 0.00 0.00 44 1010.8
20260507121504 19 186 16.1 35.4 0.00 0.00 0.00 43 1010.8
20260507121205 19 191 14.5 35.4 0.00 0.00 0.00 46 1011.0
20260507120904 19 183 9.7 35.4 0.00 0.00 0.00 44 1011.0
20260507120604 20 173 20.9 35.4 0.00 0.00 0.00 45 1011.0
20260507120304 20 172 6.4 29.0 0.00 0.00 0.00 43 1010.8
20260507120004 19 175 16.1 29.0 0.00 0.00 0.00 43 1011.1
20260507115404 18 191 16.1 27.4 0.00 0.00 0.00 44 1011.1
20260507115104 18 213 12.9 27.4 0.00 0.00 0.00 46 1011.4
20260507114804 18 222 16.1 24.1 0.00 0.00 0.00 45 1011.2
20260507114505 18 218 9.7 24.1 0.00 0.00 0.00 48 1011.2
20260507114204 18 187 4.8 24.1 0.00 0.00 0.00 48 1011.2
20260507113904 17 181 6.4 24.1 0.00 0.00 0.00 47 1011.3
20260507113604 18 177 17.7 33.8 0.00 0.00 0.00 45 1011.3
20260507113304 18 177 11.3 37.0 0.00 0.00 0.00 46 1011.1
20260507112704 18 174 14.5 37.0 0.00 0.00 0.00 46 1011.3
20260507112404 19 172 12.9 33.8 0.00 0.00 0.00 49 1011.2
20260507112104 18 166 20.9 33.8 0.00 0.00 0.00 46 1011.0
20260507111804 19 134 6.4 29.0 0.00 0.00 0.00 48 1011.2
20260507111506 18 135 6.4 14.5 0.00 0.00 0.00 48 1011.0
20260507111204 17 128 6.4 29.0 0.00 0.00 0.00 51 1011.1
20260507110604 17 154 6.4 40.2 0.00 0.00 0.00 50 1011.3
20260507110304 17 155 24.1 40.2 0.00 0.00 0.00 51 1011.2
20260507110005 17 153 29.0 40.2 0.00 0.00 0.00 50 1011.4
20260507105703 17 156 12.9 33.8 0.00 0.00 0.00 49 1011.3
20260507105404 17 138 16.1 33.8 0.00 0.00 0.00 50 1011.4
20260507105104 18 151 12.9 33.8 0.00 0.00 0.00 52 1011.5
20260507104505 18 168 9.7 25.7 0.00 0.00 0.00 50 1011.3
20260507104204 17 173 8.0 25.7 0.00 0.00 0.00 52 1011.5
20260507103904 17 173 19.3 25.7 0.00 0.00 0.00 49 1011.4
20260507103604 17 171 8.0 25.7 0.00 0.00 0.00 51 1011.3
20260507103304 17 165 12.9 25.7 0.00 0.00 0.00 53 1011.3
20260507103004 17 161 11.3 25.7 0.00 0.00 0.00 51 1011.3
20260507102403 17 145 8.0 32.2 0.00 0.00 0.00 51 1011.3
20260507102104 17 140 9.7 32.2 0.00 0.00 0.00 51 1011.6
20260507101804 17 118 24.1 32.2 0.00 0.00 0.00 51 1011.3
20260507101204 17 103 9.7 17.7 0.00 0.00 0.00 56 1011.3
20260507100603 16 112 6.4 22.5 0.00 0.00 0.00 58 1011.3
20260507100304 16 119 8.0 22.5 0.00 0.00 0.00 58 1011.4
20260507095704 16 140 16.1 24.1 0.00 0.00 0.00 57 1011.2
20260507095404 16 126 6.4 24.1 0.00 0.00 0.00 57 1011.5
20260507095104 16 131 17.7 24.1 0.00 0.00 0.00 57 1011.2
20260507094505 17 125 6.4 20.9 0.00 0.00 0.00 57 1011.0
20260507094204 16 133 6.4 20.9 0.00 0.00 0.00 58 1011.1
20260507093304 16 119 8.0 12.9 0.00 0.00 0.00 58 1011.2